FW6113 Weather Reports


time (UTC)temp
F
wind
direction
speed
knots
gust
knots
rain 1hr
in
rain 24hr
in
rain mn
in
humidity
%
barometer
mb
20260505230815 78 225 2.6 7.8 0.00 0.00 0.00 42 1014.1
20260505230313 78 252 3.5 8.7 0.00 0.00 0.00 42 1014.0
20260505225814 78 222 3.5 10.4 0.00 0.00 0.00 41 1014.1
20260505225313 78 264 3.5 10.4 0.00 0.00 0.00 41 1014.0
20260505224813 78 253 4.3 8.7 0.00 0.00 0.00 41 1014.1
20260505224313 78 195 3.5 9.6 0.00 0.00 0.00 40 1014.1
20260505224038 78 249 2.6 9.6 0.00 0.00 0.00 40 1014.1
20260505223313 78 302 2.6 6.1 0.00 0.00 0.00 41 1014.2
20260505222813 79 293 2.6 7.0 0.00 0.00 0.00 40 1014.2
20260505222312 79 245 3.5 9.6 0.00 0.00 0.00 40 1014.1
20260505221812 79 217 3.5 9.6 0.00 0.00 0.00 40 1014.2
20260505221309 78 238 3.5 8.7 0.00 0.00 0.00 41 1014.2
20260505220810 78 211 3.5 11.3 0.00 0.00 0.00 41 1014.2
20260505220532 78 230 3.5 11.3 0.00 0.00 0.00 40 1014.2
20260505215810 78 274 3.5 8.7 0.00 0.00 0.00 41 1014.2
20260505215309 78 215 3.5 8.7 0.00 0.00 0.00 40 1014.3
20260505214809 78 232 3.5 8.7 0.00 0.00 0.00 40 1014.3
20260505214536 78 241 3.5 8.7 0.00 0.00 0.00 40 1014.2
20260505213805 78 230 3.5 8.7 0.00 0.00 0.00 41 1014.2
20260505213305 78 240 3.5 10.4 0.00 0.00 0.00 40 1014.3
20260505212806 78 219 3.5 10.4 0.00 0.00 0.00 40 1014.3
20260505212306 79 237 3.5 8.7 0.00 0.00 0.00 40 1014.4
20260505211802 79 281 3.5 8.7 0.00 0.00 0.00 40 1014.4
20260505211303 79 146 3.5 7.0 0.00 0.00 0.00 41 1014.4
20260505211022 79 223 3.5 7.8 0.00 0.00 0.00 40 1014.4
20260505210301 79 190 2.6 7.8 0.00 0.00 0.00 41 1014.4
20260505205802 79 224 3.5 7.0 0.00 0.00 0.00 40 1014.6
20260505205304 78 236 3.5 9.6 0.00 0.00 0.00 41 1014.8
20260505205022 79 288 3.5 9.6 0.00 0.00 0.00 40 1014.8
20260505204258 79 228 3.5 7.8 0.00 0.00 0.00 41 1014.6
20260505203759 79 171 3.5 9.6 0.00 0.00 0.00 40 1014.6
20260505203259 79 169 3.5 10.4 0.00 0.00 0.00 43 1014.7
20260505203018 78 198 4.3 10.4 0.00 0.00 0.00 41 1014.8
20260505202259 78 202 3.5 10.4 0.00 0.00 0.00 40 1014.9
20260505201758 79 223 3.5 11.3 0.00 0.00 0.00 41 1014.9
20260505201259 79 298 4.3 11.3 0.00 0.00 0.00 40 1014.9
20260505200759 79 198 4.3 9.6 0.00 0.00 0.00 39 1015.1
20260505200747 79 232 3.5 9.6 0.00 0.00 0.00 40 1015.2
20260505195959 79 248 4.3 12.2 0.00 0.00 0.00 42 1015.5
20260505195846 79 249 3.5 12.2 0.00 0.00 0.00 39 1015.3
20260505195016 78 288 4.3 8.7 0.00 0.00 0.00 40 1015.5
20260505194258 79 169 4.3 8.7 0.00 0.00 0.00 41 1015.6
20260505193758 80 172 3.5 8.7 0.00 0.00 0.00 39 1015.7
20260505193257 79 257 3.5 8.7 0.00 0.00 0.00 42 1015.9
20260505192757 79 277 3.5 12.2 0.00 0.00 0.00 41 1016.0
20260505192256 79 235 4.3 12.2 0.00 0.00 0.00 41 1016.1
20260505191757 78 222 4.3 7.8 0.00 0.00 0.00 42 1016.1
20260505191257 78 242 4.3 8.7 0.00 0.00 0.00 40 1016.1
20260505190757 78 232 4.3 9.6 0.00 0.00 0.00 40 1016.2
20260505190257 78 236 4.3 9.6 0.00 0.00 0.00 39 1016.1
20260505185757 77 267 4.3 11.3 0.00 0.00 0.00 40 1016.1
20260505185257 77 217 4.3 11.3 0.00 0.00 0.00 39 1016.1
20260505184757 78 201 3.5 10.4 0.00 0.00 0.00 39 1016.2
20260505184256 78 199 3.5 10.4 0.00 0.00 0.00 40 1016.1
20260505183757 78 150 3.5 8.7 0.00 0.00 0.00 40 1016.2
20260505183257 78 194 5.2 10.4 0.00 0.00 0.00 38 1016.2
20260505182756 78 218 5.2 10.4 0.00 0.00 0.00 38 1016.3
20260505182520 78 290 3.5 9.6 0.00 0.00 0.00 37 1016.3
20260505182017 78 209 3.5 9.6 0.00 0.00 0.00 38 1016.4
20260505181256 78 187 4.3 9.6 0.00 0.00 0.00 37 1016.6
20260505181243 78 246 5.2 14.8 0.00 0.00 0.00 38 1016.8
20260505180256 78 215 4.3 14.8 0.00 0.00 0.00 37 1017.1
20260505175757 78 298 3.5 8.7 0.00 0.00 0.00 39 1017.2
20260505175257 78 208 4.3 11.3 0.00 0.00 0.00 41 1017.5
20260505174756 78 200 5.2 11.3 0.00 0.00 0.00 40 1017.4
20260505174257 77 262 4.3 11.3 0.00 0.00 0.00 41 1017.4
20260505173757 77 205 5.2 10.4 0.00 0.00 0.00 42 1017.3
20260505173257 77 197 5.2 10.4 0.00 0.00 0.00 41 1017.4
20260505172757 77 302 5.2 11.3 0.00 0.00 0.00 41 1017.4
20260505172257 76 194 5.2 13.9 0.00 0.00 0.00 41 1017.3
20260505171757 77 205 5.2 13.9 0.00 0.00 0.00 40 1017.4
20260505171257 76 244 4.3 10.4 0.00 0.00 0.00 41 1017.2
20260505171240 76 303 4.3 10.4 0.00 0.00 0.00 41 1017.1
20260505170509 76 246 3.5 12.2 0.00 0.00 0.00 44 1016.9
20260505170350 77 315 4.3 12.2 0.00 0.00 0.00 42 1016.9
20260505165253 76 234 3.5 9.6 0.00 0.00 0.00 46 1017.1
20260505164752 76 269 3.5 9.6 0.00 0.00 0.00 43 1017.3
20260505164511 76 114 3.5 10.4 0.00 0.00 0.00 46 1017.5
20260505163753 76 250 3.5 10.4 0.00 0.00 0.00 46 1017.6
20260505163253 75 129 3.5 9.6 0.00 0.00 0.00 47 1017.5
20260505162751 74 167 3.5 9.6 0.00 0.00 0.00 47 1017.5
20260505162245 75 242 5.2 9.6 0.00 0.00 0.00 46 1017.5
20260505161745 75 88 4.3 9.6 0.00 0.00 0.00 46 1017.4
20260505161244 75 205 3.5 8.7 0.00 0.00 0.00 45 1017.4
20260505161008 74 324 3.5 7.8 0.00 0.00 0.00 50 1017.5
20260505160244 74 245 3.5 8.7 0.00 0.00 0.00 50 1017.7
20260505153240 73 257 3.5 7.0 0.00 0.00 0.00 50 1017.6
20260505152738 73 276 3.5 10.4 0.00 0.00 0.00 50 1017.7
20260505152239 73 277 2.6 10.4 0.00 0.00 0.00 52 1017.8
20260505151738 73 147 1.7 6.1 0.00 0.00 0.00 54 1017.9
20260505151238 73 212 1.7 5.2 0.00 0.00 0.00 54 1017.9
20260505150738 72 217 1.7 5.2 0.00 0.00 0.00 57 1017.9
20260505150239 71 200 1.7 5.2 0.00 0.00 0.00 57 1017.9
20260505140228 66 242 2.6 6.1 0.00 0.00 0.00 64 1017.5
20260505130219 61 212 2.6 7.0 0.00 0.00 0.00 72 1017.3
20260505124720 60 261 2.6 6.1 0.00 0.00 0.00 75 1017.2
20260505124443 60 184 2.6 7.0 0.00 0.00 0.00 75 1017.1
20260505123721 60 234 2.6 7.8 0.00 0.00 0.00 76 1017.1
20260505123220 59 201 2.6 7.8 0.00 0.00 0.00 76 1017.1
20260505122943 59 227 2.6 7.0 0.00 0.00 0.00 76 1017.1
20260505122220 59 275 3.5 7.0 0.00 0.00 0.00 76 1017.1
20260505121932 58 207 3.5 7.0 0.00 0.00 0.00 77 1016.9
20260505121216 58 257 2.6 7.0 0.00 0.00 0.00 78 1016.9
20260505120716 57 187 2.6 5.2 0.00 0.00 0.00 78 1016.9
20260505120445 57 198 1.7 5.2 0.00 0.00 0.00 78 1016.9
20260505115716 56 194 1.7 5.2 0.00 0.00 0.00 78 1016.8
20260505115216 56 298 1.7 6.1 0.00 0.00 0.00 79 1016.8
20260505114717 56 221 1.7 6.1 0.00 0.00 0.00 79 1016.7
20260505114216 55 195 1.7 4.3 0.00 0.00 0.00 79 1016.7
20260505113716 55 197 1.7 3.5 0.00 0.00 0.00 80 1016.7
20260505113217 55 206 0.9 3.5 0.00 0.00 0.00 80 1016.8
20260505112716 55 195 1.7 5.2 0.00 0.00 0.00 80 1016.9
20260505112216 55 202 1.7 5.2 0.00 0.00 0.00 80 1016.9
20260505111716 55 198 1.7 5.2 0.00 0.00 0.00 80 1016.8
20260505111216 54 212 1.7 5.2 0.00 0.00 0.00 80 1016.9
20260505110715 54 217 1.7 3.5 0.00 0.00 0.00 80 1016.9
20260505110216 54 200 1.7 3.5 0.00 0.00 0.00 80 1016.8
20260505101716 55 222 1.7 3.5 0.00 0.00 0.00 78 1016.5
20260505101216 55 208 1.7 3.5 0.00 0.00 0.00 78 1016.5
20260505100715 55 215 1.7 5.2 0.00 0.00 0.00 78 1016.5
20260505100216 55 227 1.7 5.2 0.00 0.00 0.00 78 1016.5
20260505095716 55 219 1.7 3.5 0.00 0.00 0.00 77 1016.5
20260505095216 55 199 1.7 3.5 0.00 0.00 0.00 77 1016.5
20260505094716 55 209 1.7 3.5 0.00 0.00 0.00 76 1016.5
20260505094217 55 217 1.7 3.5 0.00 0.00 0.00 76 1016.5
20260505093716 55 263 1.7 4.3 0.00 0.00 0.00 76 1016.5
20260505093216 55 219 1.7 4.3 0.00 0.00 0.00 76 1016.5
20260505092717 55 261 1.7 4.3 0.00 0.00 0.00 76 1016.5
20260505092217 55 245 1.7 5.2 0.00 0.00 0.00 76 1016.5
20260505091717 55 213 1.7 5.2 0.00 0.00 0.00 77 1016.5
20260505091435 55 243 1.7 4.3 0.00 0.00 0.00 77 1016.5
20260505090716 54 223 1.7 4.3 0.00 0.00 0.00 77 1016.3
20260505090216 54 211 1.7 4.3 0.00 0.00 0.00 78 1016.3
20260505085716 53 207 0.9 3.5 0.00 0.00 0.00 78 1016.4
20260505085217 53 217 0.9 2.6 0.00 0.00 0.00 78 1016.5
20260505084716 53 239 0.9 2.6 0.00 0.00 0.00 78 1016.4
20260505084216 53 195 0.9 1.7 0.00 0.00 0.00 78 1016.3
20260505083716 53 194 0.9 1.7 0.00 0.00 0.00 78 1016.3
20260505083215 53 193 0.9 1.7 0.00 0.00 0.00 78 1016.2
20260505082939 53 194 0.9 1.7 0.00 0.00 0.00 78 1016.2
20260505082216 53 189 0.0 1.7 0.00 0.00 0.00 77 1016.2
20260505081941 53 186 0.0 1.7 0.00 0.00 0.00 77 1016.2
20260505081216 53 188 0.9 1.7 0.00 0.00 0.00 76 1016.2
20260505080711 53 190 0.9 1.7 0.00 0.00 0.00 76 1016.2
20260505080212 54 188 0.9 1.7 0.00 0.00 0.00 75 1016.1
20260505075712 54 185 0.9 1.7 0.00 0.00 0.00 75 1016.1
20260505075211 54 188 0.9 1.7 0.00 0.00 0.00 74 1016.0
20260505074712 55 193 0.9 1.7 0.00 0.00 0.00 74 1016.0
20260505074209 55 188 0.0 1.7 0.00 0.00 0.00 73 1016.0
20260505073710 55 188 0.0 1.7 0.00 0.00 0.00 72 1015.9
20260505073208 56 190 0.9 1.7 0.00 0.00 0.00 71 1015.9
20260505072707 56 184 0.9 1.7 0.00 0.00 0.00 70 1015.9
20260505072207 57 184 0.9 1.7 0.00 0.00 0.00 69 1015.8
20260505071922 58 189 0.9 1.7 0.00 0.00 0.00 68 1015.9
20260505071158 58 187 0.9 1.7 0.00 0.00 0.00 67 1015.9
20260505070656 59 182 0.9 2.6 0.00 0.00 0.00 65 1015.8
20260505070156 59 192 0.9 3.5 0.00 0.00 0.00 64 1015.8
20260505065156 59 190 0.9 3.5 0.00 0.00 0.00 64 1015.8
20260505064918 60 182 1.7 5.2 0.00 0.00 0.00 63 1015.9
20260505064154 60 175 1.7 6.1 0.00 0.00 0.00 63 1015.8
20260505063653 59 182 1.7 6.1 0.00 0.00 0.00 64 1015.7
20260505063152 58 278 0.9 6.1 0.00 0.00 0.00 66 1015.7
20260505062650 58 190 0.9 3.5 0.00 0.00 0.00 67 1015.7
20260505062149 57 247 0.9 2.6 0.00 0.00 0.00 68 1015.7
20260505061647 56 187 0.9 4.3 0.00 0.00 0.00 70 1015.8
20260505061148 55 192 0.9 4.3 0.00 0.00 0.00 72 1015.7
20260505060919 54 188 0.0 2.6 0.00 0.00 0.00 75 1015.7
20260505060147 54 181 0.0 0.9 0.00 0.00 0.00 77 1015.9
20260505055907 53 182 0.0 0.9 0.00 0.00 0.00 77 1015.9
20260505055148 53 184 0.0 0.9 0.00 0.00 0.00 78 1015.8
20260505054648 53 190 0.0 0.0 0.00 0.00 0.00 79 1015.8
20260505054148 53 190 0.0 0.0 0.00 0.00 0.00 79 1015.9
20260505053648 53 187 0.0 0.0 0.00 0.00 0.00 78 1016.0
20260505053143 53 185 0.0 0.0 0.00 0.00 0.00 78 1016.0
20260505052641 53 185 0.0 0.0 0.00 0.00 0.00 77 1016.0
20260505052141 53 185 0.0 0.0 0.00 0.00 0.00 77 1016.1
20260505051638 53 185 0.0 0.0 0.00 0.00 0.00 77 1016.2
20260505051137 54 184 0.0 0.0 0.00 0.00 0.00 76 1016.2
20260505050637 54 184 0.0 0.9 0.00 0.00 0.00 76 1016.2
20260505050137 54 184 0.0 0.9 0.00 0.00 0.00 76 1016.1
20260505041132 56 190 0.0 0.0 0.00 0.00 0.00 74 1016.3
20260505040632 56 190 0.0 0.0 0.00 0.00 0.00 73 1016.3
20260505040132 56 190 0.0 0.0 0.00 0.00 0.00 73 1016.3
20260505035627 56 190 0.0 0.0 0.00 0.00 0.00 73 1016.3
20260505035127 56 190 0.0 0.0 0.00 0.00 0.00 73 1016.4
20260505034627 56 190 0.0 0.0 0.00 0.00 0.00 73 1016.4
20260505034351 56 190 0.0 0.0 0.00 0.00 0.00 72 1016.4
20260505034120 57 190 0.0 0.0 0.00 0.00 0.00 72 1016.4
20260505033127 57 190 0.0 0.0 0.00 0.00 0.00 72 1016.5
20260505032624 57 189 0.0 0.0 0.00 0.00 0.00 71 1016.5
20260505032124 57 188 0.0 0.0 0.00 0.00 0.00 71 1016.5
20260505031625 58 188 0.0 0.0 0.00 0.00 0.00 71 1016.5
20260505031121 58 189 0.0 0.0 0.00 0.00 0.00 71 1016.3
20260505030621 58 186 0.0 0.0 0.00 0.00 0.00 70 1016.4
20260505030344 58 187 0.0 0.0 0.00 0.00 0.00 70 1016.4
20260505025836 58 188 0.0 0.0 0.00 0.00 0.00 69 1016.5
20260505025341 58 188 0.0 0.0 0.00 0.00 0.00 69 1016.5
20260505024617 58 188 0.0 0.9 0.00 0.00 0.00 69 1016.6
20260505024117 58 189 0.0 0.9 0.00 0.00 0.00 68 1016.3
20260505023615 59 190 0.0 0.9 0.00 0.00 0.00 67 1016.3
20260505023114 59 185 0.0 0.9 0.00 0.00 0.00 67 1016.3
20260505022613 59 190 0.0 0.9 0.00 0.00 0.00 67 1016.2
20260505022113 60 188 0.0 0.9 0.00 0.00 0.00 66 1016.2
20260505021608 60 188 0.0 1.7 0.00 0.00 0.00 66 1016.2
20260505021107 60 188 0.0 1.7 0.00 0.00 0.00 65 1016.0
20260505020828 60 189 0.0 1.7 0.00 0.00 0.00 66 1016.0
20260505020105 60 196 0.0 1.7 0.00 0.00 0.00 65 1015.9
20260505015824 60 186 0.0 0.0 0.00 0.00 0.00 65 1015.9
20260505015103 61 184 0.0 0.0 0.00 0.00 0.00 64 1015.9
20260505014603 61 184 0.0 0.0 0.00 0.00 0.00 63 1015.9
20260505014102 61 184 0.0 0.0 0.00 0.00 0.00 62 1015.8
20260505013600 62 184 0.0 0.0 0.00 0.00 0.00 62 1015.8
20260505013101 62 184 0.0 0.0 0.00 0.00 0.00 62 1015.7
20260505012600 63 184 0.0 0.0 0.00 0.00 0.00 60 1015.7
20260505012056 63 184 0.0 0.0 0.00 0.00 0.00 59 1015.7
20260505011814 63 184 0.0 0.0 0.00 0.00 0.00 59 1015.5
20260505011051 64 184 0.0 0.0 0.00 0.00 0.00 57 1015.5
20260505010549 65 184 0.0 0.9 0.00 0.00 0.00 56 1015.4
20260505010049 65 184 0.0 0.9 0.00 0.00 0.00 55 1015.4
20260505005549 66 184 0.0 0.9 0.00 0.00 0.00 54 1015.4
20260505005047 66 188 0.0 0.9 0.00 0.00 0.00 53 1015.4
20260505004547 67 182 0.0 0.9 0.00 0.00 0.00 52 1015.4
20260505004047 68 181 0.0 0.9 0.00 0.00 0.00 51 1015.2
20260505003548 68 183 0.0 0.9 0.00 0.00 0.00 48 1015.2
20260505003045 69 187 0.9 1.7 0.00 0.00 0.00 47 1015.3
20260505002545 69 192 0.9 1.7 0.00 0.00 0.00 46 1015.1
20260505002045 70 190 0.0 2.6 0.00 0.00 0.00 46 1015.1
20260505001545 71 188 0.9 2.6 0.00 0.00 0.00 45 1015.1
20260505001304 71 198 0.9 5.2 0.00 0.00 0.00 44 1015.2
20260505001031 71 239 1.7 5.2 0.00 0.00 0.00 43 1015.1
20260505000043 72 197 1.7 4.3 0.00 0.00 0.00 42 1015.1
20260504235543 72 260 1.7 6.1 0.00 0.00 0.00 42 1015.1
20260504235043 73 209 1.7 6.1 0.00 0.00 0.00 41 1015.0
20260504234542 73 213 1.7 5.2 0.00 0.00 0.00 39 1015.0
20260504234041 73 225 1.7 5.2 0.00 0.00 0.00 38 1014.8
20260504233541 74 204 3.5 9.6 0.00 0.00 0.00 37 1014.8
20260504233042 74 219 3.5 9.6 0.00 0.00 0.00 37 1014.7
20260504232541 75 200 2.6 8.7 0.00 0.00 0.00 36 1014.7
20260504232041 75 256 2.6 8.7 0.00 0.00 0.00 34 1014.7
20260504231542 76 265 1.7 6.1 0.00 0.00 0.00 34 1014.6
20260504231041 76 217 1.7 6.1 0.00 0.00 0.00 33 1014.7